Location: Heathcote
(40.9845°N, 73.7746°W)
Time: 12:22:11
(UTC+00:00)

Cosmos 1455 - Pass Details

Date: 29 October 2020
Orbit: 499 x 521 km, 82.5° (Epoch: 01 December)

Event Time Altitude Azimuth Distance (km) Brightness Sun altitude
Rises 22:35:09 0° 156° (SSE) 2,594 5.6 -8.4°
Reaches altitude 10° 22:37:36 10° 140° (SE) 1,719 4.6 -8.8°
Maximum altitude 22:40:31 22° 89° (E) 1,162 3.4 -9.4°
Drops below altitude 10° 22:43:29 10° 38° (NE) 1,742 4.4 -9.9°
Sets 22:45:58 0° 23° (NNE) 2,638 5.5 -10.4°
